Time,TemperatureF,DewpointF,PressureIn,WindDirection,WindDirectionDegrees,WindSpeedMPH,WindSpeedGustMPH,Humidity,HourlyPrecipIn,Conditions,Clouds,dailyrainin,SoftwareType,DateUTC
2013-03-04 00:52:00,19.0,-99.9,30.14,WNW,294,6.0,9.0,-999,-99.99,,,-99.99,,2013-03-04 05:52:00,
2013-03-04 01:11:00,19.0,-99.9,30.13,WNW,295,5.0,8.0,-999,-99.99,,,-99.99,,2013-03-04 06:11:00,
2013-03-04 02:22:00,19.0,-99.9,30.14,WNW,297,5.0,9.0,-999,-99.99,,,-99.99,,2013-03-04 07:22:00,
2013-03-04 02:52:00,19.0,-99.9,30.14,WNW,299,5.0,9.0,-999,-99.99,,,-99.99,,2013-03-04 07:52:00,
2013-03-04 03:12:00,19.0,-99.9,30.14,WNW,301,6.0,11.0,-999,-99.99,,,-99.99,,2013-03-04 08:12:00,
2013-03-04 03:52:00,19.0,-99.9,30.15,NW,313,5.0,9.0,-999,-99.99,,,-99.99,,2013-03-04 08:52:00,
2013-03-04 04:22:00,18.0,-99.9,30.15,WNW,302,5.0,8.0,-999,-99.99,,,-99.99,,2013-03-04 09:22:00,
2013-03-04 04:42:00,19.0,-99.9,30.15,NW,313,5.0,9.0,-999,-99.99,,,-99.99,,2013-03-04 09:42:00,
2013-03-04 05:52:00,18.0,-99.9,30.16,NW,310,5.0,8.0,-999,-99.99,,,-99.99,,2013-03-04 10:52:00,
2013-03-04 06:11:00,18.0,-99.9,30.16,NW,324,4.0,8.0,-999,-99.99,,,-99.99,,2013-03-04 11:11:00,
2013-03-04 07:22:00,18.0,-99.9,30.17,NW,308,4.0,7.0,-999,-99.99,,,-99.99,,2013-03-04 12:22:00,
2013-03-04 07:43:00,18.0,-99.9,30.17,NW,318,5.0,9.0,-999,-99.99,,,-99.99,,2013-03-04 12:43:00,
2013-03-04 08:11:00,19.0,-99.9,30.17,NW,310,4.0,6.0,-999,-99.99,,,-99.99,,2013-03-04 13:11:00,
2013-03-04 08:52:00,20.0,-99.9,30.18,NW,325,3.0,6.0,-999,-99.99,,,-99.99,,2013-03-04 13:52:00,
2013-03-04 09:22:00,21.0,-99.9,30.19,North,4,3.0,4.0,-999,-99.99,,,-99.99,,2013-03-04 14:22:00,
2013-03-04 09:42:00,22.0,-99.9,30.19,NE,52,3.0,9.0,-999,-99.99,,,-99.99,,2013-03-04 14:42:00,
2013-03-04 10:52:00,23.0,-99.9,30.20,ENE,74,6.0,8.0,-999,-99.99,,,-99.99,,2013-03-04 15:52:00,
2013-03-04 11:11:00,23.0,-99.9,30.20,ENE,74,6.0,10.0,-999,-99.99,,,-99.99,,2013-03-04 16:11:00,
2013-03-04 12:22:00,23.0,-99.9,30.22,East,94,7.0,9.0,-999,-99.99,,,-99.99,,2013-03-04 17:22:00,
2013-03-04 12:42:00,22.0,-99.9,30.21,ENE,73,6.0,9.0,-999,-99.99,,,-99.99,,2013-03-04 17:42:00,
2013-03-04 13:11:00,23.0,-99.9,30.21,ENE,70,4.0,9.0,-999,-99.99,,,-99.99,,2013-03-04 18:11:00,
2013-03-04 13:52:00,23.0,-99.9,30.20,East,92,8.0,9.0,-999,-99.99,,,-99.99,,2013-03-04 18:52:00,
2013-03-04 14:12:00,22.0,-99.9,30.19,East,87,5.0,7.0,-999,-99.99,,,-99.99,,2013-03-04 19:12:00,
2013-03-04 15:22:00,23.0,-99.9,30.18,East,88,6.0,7.0,-999,-99.99,,,-99.99,,2013-03-04 20:22:00,
2013-03-04 15:53:00,23.0,-99.9,30.18,ENE,61,4.0,7.0,-999,-99.99,,,-99.99,,2013-03-04 20:53:00,
2013-03-04 16:12:00,23.0,-99.9,30.18,ENE,73,6.0,8.0,-999,-99.99,,,-99.99,,2013-03-04 21:12:00,
2013-03-04 16:53:00,23.0,-99.9,30.18,East,79,5.0,8.0,-999,-99.99,,,-99.99,,2013-03-04 21:53:00,
2013-03-04 17:22:00,23.0,-99.9,30.18,East,80,5.0,8.0,-999,-99.99,,,-99.99,,2013-03-04 22:22:00,
2013-03-04 17:43:00,23.0,-99.9,30.18,East,82,5.0,7.0,-999,-99.99,,,-99.99,,2013-03-04 22:43:00,
2013-03-04 18:22:00,22.0,-99.9,30.19,ENE,77,3.0,6.0,-999,-99.99,,,-99.99,,2013-03-04 23:22:00,
2013-03-04 18:52:00,22.0,-99.9,30.19,ENE,73,4.0,5.0,-999,-99.99,,,-99.99,,2013-03-04 23:52:00,
2013-03-04 19:12:00,22.0,-99.9,30.19,ENE,60,4.0,5.0,-999,-99.99,,,-99.99,,2013-03-05 00:12:00,
2013-03-04 19:52:00,22.0,-99.9,30.20,NE,46,3.0,4.0,-999,-99.99,,,-99.99,,2013-03-05 00:52:00,
2013-03-04 20:22:00,20.0,-99.9,30.20,North,1,2.0,4.0,-999,-99.99,,,-99.99,,2013-03-05 01:22:00,
2013-03-04 20:42:00,20.0,-99.9,30.20,NW,325,1.0,2.0,-999,-99.99,,,-99.99,,2013-03-05 01:42:00,
2013-03-04 21:22:00,20.0,-99.9,30.19,NNW,340,3.0,5.0,-999,-99.99,,,-99.99,,2013-03-05 02:22:00,
2013-03-04 21:53:00,21.0,-99.9,30.20,NNW,340,2.0,4.0,-999,-99.99,,,-99.99,,2013-03-05 02:53:00,
2013-03-04 22:12:00,20.0,-99.9,30.19,NW,321,3.0,4.0,-999,-99.99,,,-99.99,,2013-03-05 03:12:00,
2013-03-04 22:52:00,21.0,-99.9,30.19,North,351,4.0,6.0,-999,-99.99,,,-99.99,,2013-03-05 03:52:00,
2013-03-04 23:22:00,19.0,-99.9,30.19,NW,321,2.0,3.0,-999,-99.99,,,-99.99,,2013-03-05 04:22:00,
2013-03-04 23:42:00,19.0,-99.9,30.18,NW,315,1.0,2.0,-999,-99.99,,,-99.99,,2013-03-05 04:42:00,